Theta_e
348 348 348 348 347 347 348 349 347 348 347 346 345 344 343 343 343 343 342 341 341 338 335 335 337 337 341 340 341 341 342 343 343 343 344 344 345 345 344 343 343 345 345 346 346 347 347 347 347 348 348 348 348 342 339 338 341 343 343 345 347 348
347 347 347 348 348 347 348 347 344 344 344 344 344 344 342 340 345 339 342 341 338 341 336 335 336 341 338 340 340 342 343 343 342 342 343 343 344 344 344 344 345 346 346 348 346 343 343 345 346 349 349 347 344 340 339 340 341 342 344 345 346 348
347 347 347 347 347 347 345 344 344 344 344 345 345 344 340 343 340 340 341 340 342 341 337 336 338 342 341 343 341 342 343 342 342 342 343 343 344 345 345 346 346 347 348 348 344 341 340 338 336 345 350 345 339 339 341 342 340 341 342 344 344 348
347 347 347 346 346 345 343 343 342 342 341 340 340 342 339 339 341 340 342 341 341 343 340 337 346 346 344 342 340 343 344 342 342 343 343 344 345 345 345 347 347 348 346 346 340 339 339 336 334 337 342 342 338 342 341 341 340 340 340 342 343 346
347 347 346 346 345 343 343 342 342 341 340 338 338 338 338 338 337 339 341 342 343 344 342 341 341 339 336 337 336 337 337 336 338 337 344 338 337 339 340 340 339 341 339 340 339 336 334 333 334 340 340 339 339 339 342 341 339 338 337 338 341 344
347 347 346 345 345 344 344 342 341 340 339 337 338 337 338 339 337 336 341 343 345 343 342 340 338 335 336 335 334 336 337 337 336 338 342 340 338 341 342 338 339 341 338 336 338 339 341 344 339 338 339 339 338 338 340 339 337 336 336 336 340 342
346 346 346 346 345 344 343 343 342 340 338 336 337 336 337 338 339 342 342 345 342 343 342 340 340 341 342 343 341 340 342 341 339 339 342 342 342 343 342 343 341 340 339 338 338 339 340 341 339 338 338 338 338 338 340 338 337 335 334 335 339 341
346 346 345 345 344 343 343 343 342 343 340 337 337 337 336 338 341 343 344 345 348 344 342 339 339 339 340 340 338 339 341 340 339 339 341 341 342 342 343 342 340 341 340 338 338 339 339 340 339 337 337 336 337 337 339 337 336 334 333 333 336 338
346 345 345 345 343 343 343 342 342 342 339 342 337 337 337 341 340 343 344 346 344 340 341 340 338 338 339 337 337 338 338 338 337 338 339 340 341 338 339 343 343 342 339 339 338 338 339 337 335 336 335 336 336 337 339 337 335 334 332 332 332 334
345 344 345 346 343 342 342 341 341 340 339 345 337 337 340 339 341 341 343 344 343 340 339 338 338 339 338 336 338 337 337 336 338 338 337 337 339 339 340 341 343 342 341 339 337 336 340 335 335 335 335 336 335 337 338 336 335 333 331 330 329 330
344 345 345 345 343 342 341 340 340 340 341 337 338 338 339 339 341 342 344 343 343 342 339 339 338 338 338 336 337 335 333 336 336 336 338 338 339 340 339 338 338 337 337 335 334 336 338 336 334 332 333 332 331 331 334 336 334 332 330 327 325 326
342 343 344 343 343 341 341 341 341 341 335 338 341 337 338 337 342 342 344 343 342 342 342 340 338 338 337 336 336 334 334 335 335 337 337 337 339 339 339 340 339 338 338 336 336 336 338 334 328 327 327 327 328 328 330 334 333 331 328 326 324 324
342 343 342 341 341 341 340 342 341 340 336 341 339 338 337 340 341 342 344 345 343 342 341 340 338 338 341 337 337 336 335 335 335 334 337 338 337 339 338 337 335 335 335 332 333 335 334 329 327 327 326 325 324 324 327 329 331 330 327 325 322 321
342 342 341 342 341 340 340 341 340 339 339 338 337 336 340 340 342 342 343 344 345 345 343 341 338 339 338 337 336 336 337 337 335 336 337 337 337 336 336 336 335 334 335 335 334 333 330 327 325 324 323 324 323 321 321 323 324 325 327 325 323 321
342 341 343 343 341 340 340 340 339 338 339 338 338 337 340 340 341 341 342 343 344 345 344 342 340 338 337 337 334 334 335 334 335 336 335 335 335 335 332 332 332 333 333 335 333 332 326 324 323 321 320 320 319 320 319 317 317 319 317 316 316 317
341 340 341 342 341 341 341 339 338 343 338 339 338 340 339 339 340 342 342 341 343 345 342 342 340 339 338 336 335 335 335 335 335 335 335 334 336 333 332 332 332 332 330 332 332 327 325 323 321 320 319 318 318 318 316 316 315 314 315 313 313 312
339 339 341 341 341 340 341 339 338 340 339 339 338 338 338 339 341 342 342 342 343 345 342 341 340 339 338 337 336 337 337 336 336 335 335 333 334 335 333 334 331 331 327 327 330 328 324 321 319 318 317 316 316 317 315 315 315 314 314 310 309 310
340 340 341 341 341 340 341 340 339 339 340 339 338 339 339 341 341 341 341 341 343 343 341 340 338 338 338 338 338 336 337 339 338 336 334 335 333 333 332 331 329 329 327 327 327 325 321 320 320 318 316 315 315 314 314 314 316 318 311 310 309 308
340 340 340 341 341 340 340 338 339 338 337 337 338 340 340 341 341 341 340 342 341 341 340 338 337 338 337 337 336 336 337 336 338 337 332 330 331 332 332 330 328 327 330 327 325 326 321 320 319 318 316 314 314 313 314 317 313 311 310 313 315 313
340 340 340 340 340 339 339 336 335 336 336 336 338 338 340 340 340 340 341 341 340 339 339 337 336 336 336 335 334 335 336 337 333 330 329 328 327 328 327 325 325 326 327 327 324 321 320 318 317 316 317 315 316 315 315 314 311 311 311 309 309 309
339 340 339 339 338 337 335 334 334 334 334 334 337 338 339 339 340 339 340 339 340 339 338 337 337 336 334 337 332 333 332 331 331 329 329 327 326 326 327 327 327 326 325 324 322 321 320 319 316 313 313 312 312 315 317 312 310 308 307 306 307 306
338 339 339 339 338 337 336 335 334 334 334 335 336 336 336 338 339 340 339 339 339 339 337 336 336 334 333 333 333 332 328 327 330 330 330 329 328 332 328 326 326 322 326 324 321 321 321 319 314 310 309 309 309 309 313 309 309 308 308 308 309 307
338 338 339 339 338 336 336 336 335 335 335 334 336 338 338 339 340 338 338 338 338 338 336 335 336 335 334 331 329 327 327 327 327 328 325 326 325 324 323 325 325 320 319 319 323 325 323 321 314 314 313 309 305 305 308 306 307 307 305 306 306 307
338 338 339 339 339 338 338 337 337 336 336 335 335 337 336 335 334 334 333 335 335 334 332 332 333 333 333 332 330 328 328 326 328 326 324 322 324 324 322 323 326 323 318 316 317 318 322 319 319 315 309 309 307 305 301 303 303 305 305 305 306 306
338 337 339 339 339 338 339 336 337 336 335 334 334 333 332 331 332 332 330 329 330 331 331 330 330 329 329 326 326 326 325 324 323 323 325 323 321 322 324 324 324 319 316 316 315 315 313 318 317 319 314 313 309 308 307 304 302 302 304 302 305 306
338 338 338 338 338 338 336 335 333 331 329 329 328 329 328 329 329 329 328 329 330 330 331 330 330 329 329 327 324 324 325 323 323 323 325 322 321 320 320 319 320 320 317 316 312 309 309 316 315 316 315 313 313 310 302 302 302 297 306 306 305 305
338 338 338 338 338 338 335 334 332 331 330 329 328 328 330 330 330 329 329 328 328 328 328 328 327 326 327 327 325 324 324 323 323 321 324 322 320 317 317 319 319 317 316 317 312 308 309 309 309 310 313 311 317 317 308 302 301 299 296 300 303 301
338 338 338 337 337 337 335 334 332 331 331 330 329 329 330 329 329 329 328 327 326 326 327 328 326 325 325 325 323 323 322 321 320 320 322 318 317 317 317 318 318 316 315 315 312 308 307 308 303 306 313 310 313 312 310 309 305 300 298 297 297 303
338 337 337 337 337 335 335 334 333 332 330 331 331 330 330 330 329 328 325 324 325 326 326 326 326 324 324 324 325 321 320 319 319 319 319 316 314 315 314 314 313 313 311 312 314 312 309 307 308 307 308 307 305 306 306 306 306 306 303 297 298 298
337 337 336 336 336 334 335 335 333 332 331 330 331 330 329 328 327 326 324 323 323 323 323 322 323 323 322 321 319 320 315 314 316 317 316 313 313 313 313 313 312 312 311 310 310 309 308 307 307 306 306 305 304 303 303 303 303 303 303 302 298 298
337 337 337 335 335 334 335 335 333 332 331 330 330 328 327 326 327 326 323 322 323 323 323 322 321 321 321 320 319 317 314 314 316 319 315 313 312 312 311 311 312 311 311 309 308 309 309 308 306 306 304 304 303 303 302 301 300 302 300 298 298 300
337 337 336 335 335 335 335 335 334 333 332 331 329 328 326 325 326 325 323 322 324 322 321 320 321 320 318 317 317 316 317 314 312 310 310 310 310 311 311 311 311 311 311 310 310 309 307 305 304 304 304 304 303 304 303 302 303 302 302 300 299 298
336 336 336 335 335 335 335 335 334 333 332 331 329 327 326 325 325 324 323 323 322 320 319 318 318 319 318 316 316 315 313 311 311 312 311 310 310 310 310 309 309 309 309 308 307 307 306 305 305 304 302 303 303 303 302 303 303 301 301 300 298 295
336 336 336 335 335 334 335 335 334 333 332 331 328 327 326 325 325 324 324 323 321 320 319 319 318 317 318 317 317 316 314 311 311 310 310 309 309 309 308 308 308 308 308 308 307 306 305 305 305 304 303 303 303 302 301 303 302 301 300 299 297 297
335 336 336 335 335 334 334 335 335 334 332 330 328 327 326 326 326 325 324 323 322 321 320 319 318 318 319 316 315 313 312 311 310 309 309 309 310 308 309 309 309 309 308 307 306 306 305 305 304 303 303 303 303 302 302 302 301 302 302 300 299 298
335 336 336 335 334 335 334 334 335 333 331 330 328 327 326 326 326 326 324 323 323 322 321 320 320 319 318 315 313 313 311 309 309 309 309 308 308 307 306 306 305 306 306 309 306 305 304 303 303 302 302 302 301 301 303 303 303 302 302 302 301 300
335 336 336 335 334 335 335 334 334 333 331 329 328 327 326 326 326 325 324 323 323 322 321 320 320 319 316 313 312 311 310 309 308 308 308 308 307 307 306 307 306 305 305 306 305 304 303 304 303 303 302 302 301 301 301 302 302 303 302 302 301 299
Wind_Speed
8 9 8 7 6 7 9 13 12 13 13 13 12 12 11 11 10 9 8 9 8 4 4 3 4 3 7 4 7 6 6 5 4 3 4 4 5 6 6 7 8 7 6 6 7 8 9 10 10 9 6 5 5 3 4 5 6 5 5 5 5 5
8 9 8 7 6 5 6 9 5 5 5 8 9 10 7 4 7 4 8 6 4 4 3 4 4 7 3 4 5 6 6 6 5 5 5 5 6 7 7 8 8 8 8 5 7 5 5 9 11 9 4 3 2 1 2 4 5 6 6 5 5 7
9 9 9 7 6 6 6 5 5 5 5 6 6 6 4 5 4 5 5 5 5 4 4 4 5 5 5 6 5 8 6 6 6 6 6 6 6 7 8 8 9 8 6 5 3 5 5 6 6 7 3 1 1 1 4 6 5 6 6 6 5 13
10 10 9 7 6 7 6 6 5 5 5 5 4 4 4 4 5 5 6 6 5 4 6 5 8 12 10 5 5 7 7 7 6 6 6 4 4 6 8 8 8 8 5 3 3 5 5 5 5 1 3 3 2 1 4 6 5 5 5 7 7 15
11 10 8 7 7 7 6 6 6 5 6 5 5 5 5 5 5 6 6 6 6 5 6 6 4 4 5 5 4 4 2 2 1 2 4 2 2 3 4 5 3 4 4 4 3 4 6 6 5 1 3 5 3 3 5 6 5 5 5 4 6 14
11 10 9 7 8 8 8 7 6 6 6 5 6 6 6 6 5 4 5 5 5 6 6 6 5 5 5 5 4 4 4 4 3 3 3 4 3 2 3 2 2 3 2 1 3 3 2 3 1 2 4 3 4 4 6 5 5 5 4 4 6 14
10 10 9 8 7 8 7 7 7 7 7 7 6 6 6 6 5 5 5 5 5 5 5 5 5 4 4 4 4 3 3 4 2 1 1 2 1 2 2 1 1 2 3 2 2 2 2 3 0 2 1 3 3 3 4 5 5 5 4 4 7 14
10 10 8 8 8 7 7 7 7 9 8 8 7 6 6 6 5 6 4 4 5 5 5 5 3 3 2 3 3 3 3 4 2 2 1 1 0 1 2 1 2 3 3 2 3 4 1 4 3 2 2 3 4 4 5 5 5 5 4 4 5 11
11 10 8 7 8 7 8 7 7 7 7 8 7 7 6 6 6 5 4 5 6 6 4 4 4 2 1 2 2 2 2 3 3 1 1 1 1 3 2 3 3 4 3 3 4 2 2 10 6 5 4 5 5 6 6 6 6 6 5 5 5 8
11 10 9 6 6 7 8 7 8 7 7 7 8 6 5 6 5 5 5 5 5 6 5 5 4 3 4 3 3 2 2 2 3 1 2 1 1 1 0 2 3 3 4 5 5 5 1 1 4 6 4 2 3 5 5 6 7 6 5 5 5 6
10 9 8 7 6 7 7 7 8 6 5 6 7 6 6 6 6 5 6 6 6 4 5 5 5 5 2 2 4 3 3 2 3 2 2 1 0 1 2 2 1 1 2 5 10 8 2 1 3 3 4 5 5 6 6 6 7 7 6 5 5 4
10 10 9 7 7 6 7 7 6 6 6 5 7 6 6 6 5 5 6 6 5 5 5 4 5 4 4 3 3 2 2 2 2 1 1 1 1 0 2 1 1 0 2 2 5 11 1 3 6 6 6 6 5 7 7 7 7 7 6 5 4 4
10 9 11 8 8 7 7 6 6 5 6 5 7 6 6 6 5 6 7 7 6 5 5 6 5 5 5 4 4 4 3 2 2 1 2 0 1 1 2 1 1 2 4 2 1 6 6 6 7 6 6 6 7 7 6 7 7 6 6 5 5 4
9 11 10 7 8 7 7 6 6 6 5 6 6 6 5 5 7 7 7 6 6 5 5 4 5 5 6 5 5 5 5 4 3 3 4 2 2 3 1 1 4 4 3 4 6 1 6 7 6 6 7 6 7 6 7 7 5 6 6 5 5 4
8 10 10 6 8 8 7 6 6 6 6 6 6 6 4 6 6 7 7 6 6 5 5 5 4 5 5 5 4 3 3 2 1 2 1 1 2 3 1 1 1 1 3 1 5 4 7 6 7 7 6 6 7 6 7 7 6 6 6 5 4 3
9 10 9 7 8 8 7 6 5 6 6 6 6 5 6 6 7 7 7 6 5 6 5 5 4 3 4 4 4 4 3 3 2 1 0 1 0 1 2 1 1 2 2 1 4 5 6 7 6 7 6 6 6 6 6 6 6 6 4 5 5 4
10 10 7 8 8 7 7 6 5 7 7 6 6 6 6 6 7 7 6 6 5 5 5 5 5 4 4 4 4 4 4 3 2 3 4 4 3 2 3 2 2 3 3 2 3 5 6 7 7 6 6 6 5 6 6 5 5 5 5 6 4 5
9 8 7 7 7 7 7 5 6 6 6 6 5 6 5 7 7 7 6 6 6 6 5 5 4 3 4 4 4 4 3 4 4 3 2 1 1 3 3 5 2 2 3 2 3 6 6 6 6 6 6 6 5 5 5 5 4 3 5 4 5 5
10 8 7 8 7 7 6 4 6 6 7 4 4 5 7 7 7 6 6 6 6 6 5 5 5 4 4 4 4 3 3 3 3 2 4 5 5 3 5 3 3 1 1 0 3 4 6 6 6 6 6 5 4 4 4 3 3 5 6 4 3 3
9 8 6 7 7 7 6 6 7 6 6 4 5 6 7 7 6 7 6 6 6 6 5 6 5 4 4 4 4 3 2 3 3 5 5 5 5 4 3 4 3 2 1 1 6 7 7 8 7 6 5 5 3 3 4 4 4 4 4 4 4 4
8 8 8 8 7 9 7 6 6 7 7 5 6 6 7 7 7 6 6 6 6 6 6 5 4 5 4 3 3 1 1 4 3 4 4 4 4 1 1 2 1 2 1 2 3 5 4 8 9 5 5 3 4 3 3 3 3 3 3 3 5 3
7 8 8 8 7 7 5 6 7 7 6 6 6 7 6 6 7 7 6 6 6 7 7 6 4 3 3 2 1 1 3 4 4 3 3 2 4 3 1 2 2 1 0 3 3 4 6 6 2 6 5 2 2 3 3 3 3 3 3 3 3 3
8 8 7 8 8 7 5 6 6 6 7 5 4 6 6 6 7 7 5 5 5 6 7 7 7 6 5 4 4 4 3 4 4 3 3 2 1 2 1 1 3 4 2 2 3 2 2 0 5 4 4 5 2 1 1 2 1 3 3 3 3 4
9 8 8 8 7 5 6 5 6 7 6 6 6 7 7 7 7 6 5 4 3 5 6 5 6 6 6 5 5 4 3 2 3 3 4 2 1 3 2 2 2 3 4 4 2 1 1 1 5 8 3 3 5 4 2 3 2 1 1 3 3 2
8 8 8 8 8 6 7 7 6 6 7 9 8 8 8 6 6 5 5 4 5 5 6 5 4 4 4 5 5 4 5 4 4 3 2 2 3 3 1 2 3 3 3 4 3 2 2 3 5 4 4 3 2 2 3 3 3 0 1 2 1 1
8 8 9 9 9 8 8 9 8 10 10 9 9 9 9 9 7 7 6 3 4 4 4 4 4 4 5 4 4 3 3 3 3 1 2 3 3 5 4 3 1 3 3 3 6 4 2 0 3 2 2 2 3 3 5 4 3 2 1 1 3 1
10 8 9 9 10 8 7 7 9 9 9 10 10 6 6 6 8 6 6 5 4 3 3 5 5 6 5 4 3 2 3 3 3 4 3 4 5 5 4 4 3 6 3 2 5 4 5 4 1 1 1 1 3 1 6 7 3 3 1 1 0 1
9 9 8 9 9 10 9 7 8 8 8 9 9 9 9 8 6 6 7 6 4 4 3 4 6 6 6 5 4 2 2 4 4 3 5 5 4 3 5 5 5 4 4 4 4 7 5 1 5 2 0 1 2 4 6 1 4 6 5 5 3 1
11 10 9 10 9 10 9 8 8 8 8 7 8 9 8 7 7 7 7 5 5 5 3 4 5 6 6 6 4 4 3 4 4 5 5 5 4 5 5 5 5 6 6 5 5 4 6 4 4 1 1 2 3 4 4 4 2 2 2 3 1 3
13 10 9 10 9 9 8 8 9 8 10 9 8 8 8 8 7 7 8 6 6 4 4 5 6 5 5 6 5 5 6 6 5 6 5 5 5 4 4 5 5 5 5 6 4 6 7 5 5 4 4 3 4 2 5 6 5 5 3 2 5 5
13 11 10 10 9 10 9 9 9 10 11 11 10 11 10 9 8 8 8 7 6 5 5 5 5 6 5 5 5 5 6 5 5 5 6 5 4 5 4 5 5 5 5 6 5 6 6 5 6 6 6 7 6 6 4 3 2 3 3 2 4 3
13 13 11 10 9 10 9 10 8 9 11 11 12 11 12 12 11 11 9 8 6 6 5 6 6 6 6 6 5 5 6 6 6 6 6 5 4 4 4 4 5 5 5 5 5 6 6 7 6 7 6 6 6 5 5 5 3 4 5 2 3 3
14 14 13 12 10 10 10 10 10 9 9 10 11 12 11 11 10 9 9 7 7 7 6 6 7 7 6 6 6 6 6 6 6 4 5 5 4 4 5 6 6 6 6 6 6 6 7 6 6 7 6 5 6 6 6 3 4 4 3 5 5 4
15 14 13 13 11 11 11 10 10 8 10 10 10 11 10 10 9 8 8 7 7 8 7 7 7 7 7 6 6 6 6 6 5 5 5 5 5 5 5 6 5 6 6 5 6 7 7 6 6 5 5 7 6 6 6 5 4 6 5 5 5 3
15 15 14 14 12 12 10 11 9 8 10 9 10 9 9 9 9 9 8 7 7 7 7 6 7 6 7 7 8 7 6 6 5 5 5 5 5 6 5 6 6 6 6 6 6 7 6 7 8 7 6 6 7 6 6 5 6 6 5 5 4 3
16 15 15 14 13 12 11 10 10 10 11 11 9 9 8 8 8 9 9 8 8 7 7 8 7 7 5 7 8 8 7 6 5 5 5 6 6 6 6 7 6 6 6 4 7 7 6 7 8 7 7 6 7 6 5 5 5 6 4 4 5 5
15 14 14 15 14 12 11 10 11 10 11 11 11 11 10 10 10 9 9 7 8 7 8 8 8 6 8 8 8 8 8 7 5 5 6 6 6 6 5 5 6 6 6 5 6 6 5 6 6 6 6 6 6 6 5 5 5 5 4 4 5 6
Wind_Direction
153 150 149 148 151 151 158 156 155 147 144 143 142 144 147 149 147 147 147 150 149 137 139 141 138 138 157 150 147 165 172 173 189 216 230 242 250 256 258 263 267 273 285 294 298 299 294 289 286 285 299 320 334 336 325 24 58 63 53 48 38 38
155 155 154 151 151 151 155 152 139 140 140 144 147 153 153 151 153 151 153 150 143 154 150 152 155 162 160 160 168 175 186 189 192 222 234 245 253 257 266 271 277 283 290 300 300 300 292 289 285 270 253 293 3 325 348 40 70 68 60 39 38 40
159 157 156 153 149 148 145 138 139 135 142 145 158 161 164 163 157 171 158 160 167 164 161 174 174 166 164 171 170 185 191 199 208 213 229 240 257 269 277 281 285 290 296 295 284 277 274 274 280 284 259 158 68 344 26 57 69 67 63 56 41 52
160 159 157 155 146 148 152 145 145 146 140 154 167 172 186 182 178 179 178 169 178 184 168 182 181 165 167 164 177 186 194 208 216 230 237 248 275 284 282 282 278 278 276 269 264 260 273 271 268 287 140 147 104 61 64 78 69 67 58 60 62 62
156 159 159 155 150 156 158 149 158 152 155 168 173 189 202 203 192 179 187 181 173 191 171 184 163 134 132 144 146 155 185 172 210 246 243 236 239 259 254 251 254 263 254 251 253 256 260 277 290 173 119 97 146 98 94 90 87 77 74 69 69 68
155 161 162 158 155 162 162 156 164 160 163 176 182 197 202 201 200 187 188 182 167 145 149 123 116 131 142 138 148 164 174 187 203 219 222 214 220 251 276 224 271 309 288 258 245 262 297 272 326 85 110 132 117 100 109 102 97 98 89 76 74 74
158 161 167 159 153 165 167 164 163 165 167 182 189 198 205 201 189 183 160 151 124 107 107 96 91 87 94 115 127 127 146 159 159 147 68 107 168 240 267 338 10 296 293 297 289 279 244 1 320 234 134 110 114 135 119 110 114 104 88 80 78 76
160 162 170 162 160 169 164 166 168 174 173 181 185 203 200 189 173 146 141 125 101 100 104 100 96 88 107 121 142 130 121 104 114 79 88 123 143 65 28 16 317 291 276 282 308 280 46 69 293 289 232 130 153 140 128 126 115 104 97 79 76 77
162 163 168 168 163 163 166 170 175 180 174 180 185 200 182 154 142 134 123 111 116 119 110 107 113 137 106 112 120 106 103 106 96 67 59 15 26 71 10 343 316 285 302 304 262 258 159 142 226 227 204 193 162 150 139 131 119 108 88 76 71 78
164 166 167 168 164 157 169 168 179 182 180 168 183 179 148 135 146 140 122 111 110 125 134 136 130 150 159 148 112 109 111 93 97 100 83 32 19 64 88 18 346 324 316 311 309 283 293 255 180 164 190 186 159 145 134 126 114 102 98 88 78 81
166 164 164 164 165 165 166 163 177 158 169 162 161 150 131 143 146 149 138 134 125 127 134 137 139 136 120 125 122 139 144 144 147 163 144 157 188 218 112 123 225 53 10 14 308 303 194 251 333 68 90 77 99 103 111 112 113 115 106 92 86 86
163 162 165 166 166 162 160 157 167 143 167 163 139 142 141 150 147 138 126 119 126 133 138 140 149 140 139 148 136 145 130 111 144 152 106 183 178 75 105 113 100 139 58 75 290 262 175 92 69 70 71 73 81 85 103 116 121 115 113 113 103 93
163 157 164 166 166 161 154 154 161 156 170 141 127 137 141 154 137 128 124 128 134 143 149 153 152 150 148 152 160 152 148 163 168 138 122 169 134 24 47 63 97 65 56 78 341 265 58 63 70 63 58 59 61 62 82 114 119 119 120 119 122 120
160 158 165 156 156 152 153 160 160 156 160 130 131 134 145 144 130 126 120 129 138 150 151 156 148 144 146 155 158 153 151 167 187 157 144 156 114 65 17 352 45 33 60 42 275 19 69 68 58 62 56 50 58 60 67 72 90 111 122 132 142 136
164 161 162 149 153 151 152 162 152 150 147 137 136 146 157 141 130 124 124 134 139 138 144 147 145 144 151 147 133 130 107 127 100 52 24 28 100 124 109 63 342 143 59 75 251 77 97 83 75 65 60 58 59 61 63 72 80 92 102 109 112 125
164 160 160 150 153 147 151 165 147 149 142 141 151 152 157 147 129 124 127 138 142 137 141 151 147 151 141 129 137 133 138 140 155 121 206 276 174 174 168 176 192 68 78 334 89 100 97 94 81 71 57 59 56 63 67 70 79 84 87 87 80 73
166 159 149 147 146 141 145 157 141 151 143 146 149 152 150 135 118 125 130 131 137 134 142 147 150 153 136 139 139 143 160 153 185 163 192 189 204 190 148 93 97 143 100 70 46 100 91 95 85 77 66 61 54 59 65 75 78 87 89 91 93 87
161 160 150 148 146 145 148 155 137 152 144 143 153 150 139 114 122 125 132 136 137 135 142 144 136 133 125 142 147 158 167 163 189 198 199 199 194 165 116 99 80 32 79 75 73 119 107 97 93 82 72 67 57 59 68 74 72 74 91 103 103 99
160 162 151 147 142 146 151 140 136 142 146 144 131 137 121 121 125 127 133 138 137 134 137 138 131 125 123 127 141 167 164 188 192 158 102 66 48 43 58 63 117 39 9 105 99 125 117 106 95 86 81 65 63 57 52 57 60 68 67 78 86 86
162 158 148 148 143 152 152 145 137 134 135 148 128 120 119 126 125 125 135 136 140 138 139 141 135 128 122 139 160 165 194 176 141 96 83 75 52 47 80 90 104 85 11 29 89 113 120 105 84 80 75 53 42 50 48 58 69 73 71 71 81 83
159 158 155 158 159 162 160 148 137 151 155 157 143 128 126 129 124 130 139 145 148 143 138 133 128 124 136 149 160 185 158 82 91 108 107 122 132 134 132 130 162 129 143 123 106 120 128 117 110 68 42 54 42 20 38 56 52 59 88 98 94 89
156 164 165 167 162 162 166 164 153 160 156 151 144 136 131 122 128 135 144 154 152 144 141 140 141 135 141 140 144 107 107 103 83 90 111 123 138 171 145 125 139 92 41 141 140 161 156 117 82 136 132 105 13 7 356 34 43 39 52 54 53 44
168 166 168 167 164 166 169 159 151 157 153 142 133 131 120 126 128 134 146 152 150 140 145 149 157 161 149 142 130 115 108 116 109 98 59 10 193 120 105 118 169 155 116 64 114 133 186 145 145 125 114 99 154 106 330 5 349 53 63 45 60 56
172 166 170 171 169 170 162 152 145 148 147 129 134 118 108 108 106 112 125 141 125 131 138 148 155 149 141 125 118 119 118 73 89 109 117 74 200 140 167 99 148 177 126 152 156 125 72 91 127 138 144 197 181 133 133 263 200 284 86 79 74 55
169 170 170 169 172 160 150 147 126 101 105 102 104 113 115 111 119 119 114 115 133 135 138 142 128 113 101 102 101 102 102 106 109 93 99 98 141 142 138 164 123 108 122 159 155 136 16 79 117 168 143 125 112 191 203 191 131 301 67 78 63 105
174 168 171 174 175 169 166 158 140 142 143 139 138 142 146 147 143 140 143 144 126 128 140 142 122 109 102 93 82 80 94 109 102 95 97 124 87 50 41 57 38 135 96 149 146 122 112 19 123 128 148 167 167 170 154 175 106 204 301 209 197 195
174 169 172 177 177 175 167 161 154 155 151 149 144 142 137 139 139 144 136 144 150 142 142 123 123 119 121 117 113 122 107 126 101 83 93 84 75 93 78 70 64 67 69 101 125 126 148 168 47 13 85 148 147 143 139 135 199 112 127 302 239 178
168 173 178 172 176 177 171 158 154 153 152 148 147 147 148 145 140 137 139 148 147 147 149 123 134 131 125 126 127 120 104 138 126 108 81 84 90 91 81 70 67 82 73 65 119 136 158 153 141 192 350 89 73 99 134 115 130 167 156 165 246 302
171 173 180 176 173 175 168 158 154 151 147 145 139 140 142 143 140 137 131 144 140 159 159 140 123 128 130 133 133 138 111 111 114 98 99 91 84 83 92 88 78 69 75 64 76 106 104 87 88 86 75 14 46 53 66 68 70 92 139 126 199 180
173 174 176 180 174 172 161 157 157 160 151 149 141 139 142 146 143 141 141 147 154 143 140 134 120 125 116 116 120 98 83 88 102 105 100 104 95 86 82 91 101 105 97 89 85 93 101 103 93 74 80 106 76 36 39 30 21 20 45 85 160 199
175 171 174 179 173 172 163 167 167 164 158 153 149 146 146 148 144 144 150 160 159 163 138 113 103 112 101 94 98 109 107 102 104 109 108 104 109 112 105 104 105 97 92 97 97 94 90 85 86 78 71 81 90 94 111 105 60 39 100 85 57 16
174 175 175 175 172 171 169 173 175 166 161 158 153 154 156 157 158 155 158 163 163 152 136 122 112 109 103 98 95 95 97 95 101 109 116 124 125 119 109 94 84 86 87 86 86 86 89 85 82 84 80 80 88 94 79 87 106 89 82 94 123 141
178 176 176 176 175 174 173 179 177 169 162 158 156 156 156 156 160 155 158 155 159 150 148 129 125 119 124 118 106 92 95 98 95 102 113 114 115 102 97 95 96 91 89 85 88 92 88 89 94 94 103 88 86 73 73 71 76 88 86 101 91 73
178 176 175 175 177 179 181 180 178 167 162 157 156 157 157 157 160 155 156 158 158 150 149 148 137 134 133 127 112 117 108 107 109 109 114 116 111 107 101 99 96 92 90 93 88 87 93 93 88 93 91 81 69 74 71 66 71 63 59 58 49 56
174 176 172 178 179 181 181 180 178 164 160 156 154 156 156 158 158 153 156 157 156 149 144 146 140 147 129 128 121 118 115 108 106 103 99 99 100 98 98 96 96 99 93 92 92 91 88 92 90 87 79 83 81 67 64 61 63 56 66 76 92 89
177 173 173 176 181 180 180 178 175 162 161 156 153 150 151 156 157 155 159 159 157 152 146 142 142 150 131 129 124 119 116 116 115 112 104 106 107 105 106 107 107 107 104 101 98 96 100 98 99 97 93 86 80 76 68 62 59 57 58 79 82 85
177 174 175 179 179 179 179 177 175 162 160 158 156 158 160 161 156 155 157 159 156 154 146 142 146 137 123 130 126 125 122 124 122 114 110 114 115 117 114 110 113 110 112 115 107 107 102 97 98 97 92 96 102 94 80 67 54 53 47 44 75 91